Location: ??????
(30.5519°N, 47.7720°E)
Time: 09:10:34
(UTC+00:00)

PSLV R/B - Pass Details

Date: 15 May 2021
Orbit: 567 x 598 km, 98.2° (Epoch: 21 June)

Event Time Altitude Azimuth Distance (km) Brightness Sun altitude
Rises 16:02:41 0° 3° (N) 2,844 7.8 -6.0°
Reaches altitude 10° 16:04:56 10° 356° (N) 1,937 7.0 -6.4°
Maximum altitude 16:08:54 42° 286° (WNW) 855 5.5 -7.2°
Drops below altitude 10° 16:12:50 10° 215° (SW) 1,918 6.7 -7.9°
Sets 16:15:03 0° 209° (SSW) 2,811 7.5 -8.3°
